EW0890 Weather Reports


Display with metric or nautical units.
time (UTC)temp
F
wind
direction
speed
MPH
gust
MPH
rain 1hr
in
rain 24hr
in
rain mn
in
humidity
%
barometer
mb
20260510112510 46 45 1.0 3.0 0.00 0.00 0.00 83 1016.2
20260510112009 46 34 0.0 1.0 0.00 0.00 0.00 83 1016.2
20260510111521 46 30 0.0 2.0 0.00 0.00 0.00 83 1016.2
20260510111012 46 30 0.0 2.0 0.00 0.00 0.00 84 1016.0
20260510110506 46 29 1.0 2.0 0.00 0.00 0.00 84 1015.9
20260510110032 45 28 1.0 3.0 0.00 0.00 0.00 85 1015.8
20260510105507 45 41 0.0 5.0 0.00 0.00 0.00 85 1015.9
20260510105011 45 51 2.0 5.0 0.00 0.00 0.00 86 1015.7
20260510104524 45 58 0.0 0.0 0.00 0.00 0.00 85 1015.6
20260510104010 45 58 0.0 0.0 0.00 0.00 0.00 84 1015.3
20260510103507 45 58 0.0 0.0 0.00 0.00 0.00 85 1015.2
20260510103028 46 100 0.0 0.0 0.00 0.00 0.00 84 1015.1
20260510102507 46 72 0.0 0.0 0.00 0.00 0.00 84 1014.8
20260510102004 46 72 0.0 0.0 0.00 0.00 0.00 83 1014.8
20260510101519 47 93 0.0 0.0 0.00 0.00 0.00 82 1014.7
20260510101008 47 94 0.0 0.0 0.00 0.00 0.00 81 1014.7
20260510100503 48 94 0.0 0.0 0.00 0.00 0.00 81 1014.5
20260510100005 48 94 0.0 0.0 0.00 0.00 0.00 80 1014.4
20260510095505 48 91 0.0 0.0 0.00 0.00 0.00 80 1014.3
20260510095003 49 40 0.0 3.0 0.00 0.00 0.00 79 1014.2
20260510094508 49 64 0.0 3.0 0.00 0.00 0.00 79 1014.1
20260510094004 49 352 0.0 3.0 0.00 0.00 0.00 80 1014.0
20260510093504 49 133 0.0 2.0 0.00 0.00 0.00 80 1013.9
20260510093012 49 106 0.0 0.0 0.00 0.00 0.00 80 1013.9
20260510092504 50 37 0.0 0.0 0.00 0.00 0.00 80 1013.8
20260510092004 50 37 0.0 0.0 0.00 0.00 0.00 80 1013.7
20260510091516 51 37 0.0 0.0 0.00 0.00 0.00 78 1013.7
20260510090504 51 29 0.0 0.0 0.00 0.00 0.00 76 1013.5
20260510090031 52 29 0.0 0.0 0.00 0.00 0.00 76 1013.5
20260510085511 52 29 0.0 0.0 0.00 0.00 0.00 76 1013.6
20260510085002 53 29 0.0 0.0 0.00 0.00 0.00 76 1013.5
20260510084506 53 29 0.0 0.0 0.00 0.00 0.00 75 1013.6
20260510084004 53 36 0.0 0.0 0.00 0.00 0.00 75 1013.5
20260510083505 53 36 0.0 0.0 0.00 0.00 0.00 75 1013.5
20260510083009 54 36 0.0 0.0 0.00 0.00 0.00 74 1013.6
20260510082506 54 36 0.0 0.0 0.00 0.00 0.00 74 1013.5
20260510082004 54 36 0.0 0.0 0.00 0.00 0.00 74 1013.4
20260510081514 54 36 0.0 0.0 0.00 0.00 0.00 74 1013.4
20260510081004 54 36 0.0 0.0 0.00 0.00 0.00 74 1013.3
20260510080506 54 36 0.0 0.0 0.00 0.00 0.00 72 1013.2
20260510080015 54 36 0.0 0.0 0.00 0.00 0.00 72 1013.3
20260510075507 55 36 0.0 0.0 0.00 0.00 0.00 72 1013.4
20260510074521 55 36 0.0 0.0 0.00 0.00 0.00 71 1013.3
20260510074006 55 36 0.0 0.0 0.00 0.00 0.00 70 1013.3
20260510073503 56 36 0.0 0.0 0.00 0.00 0.00 69 1013.3
20260510073005 56 45 0.0 0.0 0.00 0.00 0.00 69 1013.2
20260510071510 56 45 0.0 0.0 0.00 0.00 0.00 68 1013.2
20260510071004 56 45 0.0 0.0 0.00 0.00 0.00 67 1013.2
20260510070503 56 45 0.0 0.0 0.00 0.00 0.00 67 1013.3
20260510070014 56 45 0.0 0.0 0.00 0.00 0.00 68 1013.2
20260510065509 56 45 0.0 0.0 0.00 0.00 0.00 68 1013.1
20260510064520 57 41 0.0 2.0 0.00 0.00 0.00 67 1012.5
20260510064009 57 31 1.0 2.0 0.00 0.00 0.00 68 1012.4
20260510063509 57 335 0.0 2.0 0.00 0.00 0.00 67 1012.4
20260510063022 57 23 0.0 4.0 0.00 0.00 0.00 67 1012.2
20260510062511 57 13 1.0 5.0 0.00 0.00 0.00 68 1012.1
20260510061506 57 39 2.0 4.0 0.00 0.00 0.00 67 1012.4
20260510061004 58 45 2.0 4.0 0.00 0.00 0.00 68 1012.3
20260510060009 58 85 1.0 2.0 0.00 0.00 0.00 65 1012.2
20260510055508 58 168 0.0 0.0 0.00 0.00 0.00 66 1012.3
20260510054520 59 168 0.0 0.0 0.00 0.00 0.00 62 1012.2
20260510054008 59 150 0.0 0.0 0.00 0.00 0.00 61 1012.0
20260510053021 59 155 0.0 1.0 0.00 0.00 0.00 60 1012.0
20260510052507 60 236 0.0 2.0 0.00 0.00 0.00 60 1011.9
20260510052009 60 292 0.0 2.0 0.00 0.00 0.00 60 1011.7
20260510051525 60 64 0.0 2.0 0.00 0.00 0.00 59 1011.6
20260510051007 60 92 0.0 2.0 0.00 0.00 0.00 59 1011.6
20260510050008 61 119 1.0 3.0 0.00 0.00 0.00 59 1011.5
20260510044510 61 233 1.0 3.0 0.00 0.00 0.00 57 1011.4
20260510044002 61 88 1.0 3.0 0.00 0.00 0.00 58 1011.4
20260510043021 61 326 1.0 3.0 0.00 0.00 0.00 59 1011.4
20260510041522 61 323 1.0 4.0 0.00 0.00 0.00 60 1011.1
20260510041008 61 303 0.0 1.0 0.00 0.00 0.00 60 1011.0
20260510040509 61 328 0.0 1.0 0.00 0.00 0.00 60 1011.0
20260510040024 62 337 0.0 0.0 0.00 0.00 0.00 60 1011.0
20260510035507 62 302 0.0 0.0 0.00 0.00 0.00 59 1010.9
20260510034507 62 302 0.0 0.0 0.00 0.00 0.00 60 1010.7
20260510034003 62 302 0.0 0.0 0.00 0.00 0.00 60 1010.5
20260510033012 62 302 0.0 1.0 0.00 0.00 0.00 57 1010.2
20260510032009 62 326 0.0 3.0 0.00 0.00 0.00 56 1010.0
20260510031523 62 336 1.0 3.0 0.00 0.00 0.00 57 1009.9
20260510025509 62 266 0.0 0.0 0.00 0.00 0.00 62 1009.6
20260510025009 62 262 0.0 0.0 0.00 0.00 0.00 61 1009.6
20260510024526 62 261 0.0 0.0 0.00 0.00 0.00 62 1009.5
20260510024008 63 261 0.0 0.0 0.00 0.00 0.00 61 1009.5
20260510023008 63 333 0.0 0.0 0.00 0.00 0.00 56 1009.3
20260510022004 64 333 0.0 0.0 0.00 0.00 0.00 55 1009.2
20260510020018 64 337 0.0 0.0 0.00 0.00 0.00 54 1009.0
20260510014010 65 344 0.0 2.0 0.00 0.00 0.00 51 1008.5
20260510013512 65 328 0.0 3.0 0.00 0.00 0.00 50 1008.5
20260510013026 65 338 1.0 5.0 0.00 0.00 0.00 50 1008.4
20260510012004 65 322 0.0 3.0 0.00 0.00 0.00 50 1008.3
20260510011512 65 310 0.0 3.0 0.00 0.00 0.00 49 1008.3
20260510011003 66 6 1.0 3.0 0.00 0.00 0.00 49 1008.2
20260510005509 66 188 1.0 3.0 0.00 0.00 0.00 46 1008.0
20260510003508 68 67 1.0 4.0 0.00 0.00 0.00 42 1007.7
20260510002509 69 204 1.0 3.0 0.00 0.00 0.00 40 1007.5
20260510002011 70 274 1.0 4.0 0.00 0.00 0.00 39 1007.3
20260510001526 71 1 1.0 5.0 0.00 0.00 0.00 38 1007.3
20260510001004 71 339 3.0 6.0 0.00 0.00 0.00 36 1007.2
20260510000504 72 337 1.0 6.0 0.00 0.00 0.00 36 1007.1
20260509235505 72 345 3.0 6.0 0.00 0.00 0.00 33 1007.0
20260509234519 73 316 2.0 8.0 0.00 0.00 0.00 33 1006.9
20260509234008 73 354 2.0 8.0 0.00 0.00 0.00 34 1006.9
20260509232507 73 331 2.0 7.0 0.00 0.00 0.00 34 1006.9
20260509232002 73 64 3.0 7.0 0.00 0.00 0.00 33 1006.9
20260509231508 73 341 2.0 8.0 0.00 0.00 0.00 33 1006.8
20260509231003 74 270 4.0 10.0 0.00 0.00 0.00 31 1006.7
20260509230011 75 56 3.0 10.0 0.00 0.00 0.00 33 1006.4
20260509224008 76 308 3.0 7.0 0.00 0.00 0.00 28 1006.1
20260509223506 76 283 2.0 7.0 0.00 0.00 0.00 28 1006.1
20260509223018 76 323 3.0 13.0 0.00 0.00 0.00 29 1006.0
20260509222507 76 297 2.0 17.0 0.00 0.00 0.00 31 1006.1
20260509222009 76 296 9.0 19.0 0.00 0.00 0.00 30 1006.1
20260509221523 76 284 10.0 19.0 0.00 0.00 0.00 27 1006.2
20260509220506 77 279 12.0 21.0 0.00 0.00 0.00 27 1006.1
20260509220009 77 273 16.0 20.0 0.00 0.00 0.00 28 1006.0
20260509215504 77 281 13.0 21.0 0.00 0.00 0.00 28 1006.1
20260509215006 77 254 15.0 23.0 0.00 0.00 0.00 29 1006.1
20260509214005 76 266 9.0 21.0 0.00 0.00 0.00 35 1006.0
20260509213504 75 292 11.0 19.0 0.00 0.00 0.00 40 1006.1
20260509212507 75 289 11.0 18.0 0.00 0.00 0.00 40 1006.2
20260509211527 76 262 13.0 21.0 0.00 0.00 0.00 38 1006.2
20260509211008 76 271 16.0 21.0 0.00 0.00 0.00 37 1006.2
20260509210514 76 259 14.0 19.0 0.00 0.00 0.00 39 1006.3
20260509210023 75 259 11.0 21.0 0.00 0.00 0.00 39 1006.4
20260509205504 75 271 13.0 21.0 0.00 0.00 0.00 38 1006.4
20260509204508 75 276 9.0 18.0 0.00 0.00 0.00 40 1006.5
20260509204004 75 310 12.0 18.0 0.00 0.00 0.00 39 1006.5
20260509203503 75 290 13.0 18.0 0.00 0.00 0.00 37 1006.4
20260509202503 75 287 16.0 19.0 0.00 0.00 0.00 36 1006.4
20260509202006 75 285 12.0 21.0 0.00 0.00 0.00 37 1006.4
20260509201518 76 275 14.0 21.0 0.00 0.00 0.00 36 1006.4
20260509201007 75 316 3.0 21.0 0.00 0.00 0.00 40 1006.4
20260509200509 75 262 11.0 21.0 0.00 0.00 0.00 37 1006.4
20260509200024 75 281 12.0 21.0 0.00 0.00 0.00 42 1006.4
20260509195513 74 316 11.0 21.0 0.00 0.00 0.00 41 1006.5
20260509195008 74 266 12.0 23.0 0.00 0.00 0.00 42 1006.4
20260509194526 74 279 17.0 23.0 0.00 0.00 0.00 41 1006.6
20260509193503 74 281 7.0 21.0 0.00 0.00 0.00 39 1006.6
20260509193010 74 278 14.0 21.0 0.00 0.00 0.00 42 1006.6
20260509192507 74 285 14.0 26.0 0.00 0.00 0.00 42 1006.6
20260509192009 74 281 16.0 26.0 0.00 0.00 0.00 40 1006.6
20260509191518 74 307 10.0 25.0 0.00 0.00 0.00 44 1006.6
20260509191006 74 283 14.0 25.0 0.00 0.00 0.00 42 1006.6
20260509190507 74 276 11.0 25.0 0.00 0.00 0.00 42 1006.6
20260509185507 73 274 15.0 22.0 0.00 0.00 0.00 50 1006.5
20260509185014 73 280 16.0 24.0 0.00 0.00 0.00 48 1006.5
20260509184531 74 272 18.0 24.0 0.00 0.00 0.00 49 1006.3
20260509184008 73 283 10.0 25.0 0.00 0.00 0.00 47 1006.3
20260509183511 73 281 17.0 25.0 0.00 0.00 0.00 47 1006.2
20260509183026 73 233 15.0 22.0 0.00 0.00 0.00 54 1006.2
20260509182504 73 276 15.0 24.0 0.00 0.00 0.00 46 1006.2
20260509182010 72 282 15.0 24.0 0.00 0.00 0.00 52 1006.1
20260509181007 72 269 16.0 23.0 0.00 0.00 0.00 52 1006.2
20260509180508 72 249 14.0 23.0 0.00 0.00 0.00 51 1006.2
20260509175508 72 257 16.0 21.0 0.00 0.00 0.00 53 1006.2
20260509175008 71 250 16.0 21.0 0.00 0.00 0.00 56 1006.2
20260509174008 71 253 15.0 20.0 0.00 0.03 0.00 57 1006.1
20260509173509 70 250 12.0 22.0 0.00 0.06 0.00 60 1006.1
20260509173024 70 267 17.0 22.0 0.00 0.07 0.00 58 1005.9
20260509172512 70 234 14.0 22.0 0.00 0.08 0.00 61 1005.9
20260509172013 70 253 14.0 21.0 0.00 0.08 0.00 61 1006.0
20260509171003 69 257 15.0 22.0 0.00 0.09 0.00 63 1006.0
20260509170504 69 268 15.0 22.0 0.00 0.09 0.00 63 1006.1
20260509165508 68 262 18.0 23.0 0.00 0.10 0.00 67 1006.2
20260509165005 68 262 16.0 23.0 0.00 0.10 0.00 67 1006.1
20260509164006 67 267 17.0 22.0 0.00 0.10 0.00 68 1006.0
20260509163513 67 259 17.0 22.0 0.00 0.10 0.00 69 1006.1
20260509162008 66 261 16.0 23.0 0.00 0.10 0.00 73 1005.9
20260509161524 66 252 15.0 23.0 0.00 0.10 0.00 73 1005.9
20260509161014 66 274 16.0 21.0 0.00 0.10 0.00 74 1005.8
20260509160510 66 255 17.0 21.0 0.00 0.10 0.00 75 1005.8
20260509160012 65 248 13.0 22.0 0.00 0.10 0.00 76 1005.9
20260509155504 65 250 18.0 22.0 0.00 0.10 0.00 77 1006.0
20260509155006 65 250 15.0 23.0 0.00 0.10 0.00 77 1005.9
20260509154522 65 253 15.0 23.0 0.00 0.10 0.00 76 1005.9
20260509154009 64 272 13.0 21.0 0.00 0.10 0.00 82 1006.0
20260509153506 64 255 15.0 21.0 0.00 0.10 0.00 79 1006.1
20260509153023 64 269 15.0 20.0 0.00 0.10 0.00 80 1006.0
20260509152512 63 248 16.0 20.0 0.00 0.10 0.00 79 1005.8
20260509152008 63 254 16.0 20.0 0.00 0.10 0.00 79 1005.7
20260509151006 63 243 13.0 17.0 0.00 0.10 0.00 83 1005.8
20260509150509 62 234 13.0 16.0 0.00 0.10 0.00 81 1006.0
20260509150026 61 267 13.0 19.0 0.00 0.10 0.00 82 1006.0
20260509145510 61 250 15.0 19.0 0.00 0.10 0.00 82 1006.2
20260509145011 61 256 13.0 20.0 0.00 0.10 0.00 86 1006.4
20260509144519 60 249 15.0 20.0 0.00 0.10 0.00 84 1006.4
20260509144003 60 248 14.0 18.0 0.00 0.10 0.00 86 1006.3
20260509143508 60 231 14.0 20.0 0.00 0.10 0.00 86 1006.4
20260509143006 59 245 15.0 22.0 0.00 0.10 0.00 87 1006.4
20260509142503 59 245 14.0 22.0 0.00 0.10 0.00 89 1006.3
20260509142001 59 232 15.0 21.0 0.00 0.10 0.00 90 1006.2
20260509141508 58 240 14.0 20.0 0.00 0.10 0.00 90 1006.1
20260509141005 58 237 16.0 20.0 0.00 0.10 0.00 90 1006.0
20260509140503 58 247 17.0 20.0 0.00 0.10 0.00 91 1005.9
20260509140009 57 257 15.0 18.0 0.00 0.10 0.00 93 1006.0
20260509135507 57 255 16.0 18.0 0.00 0.10 0.00 93 1005.9
20260509135004 56 253 13.0 17.0 0.00 0.10 0.00 94 1006.0
20260509134510 56 250 13.0 20.0 0.00 0.10 0.00 95 1005.9
20260509134004 55 257 16.0 20.0 0.00 0.10 0.00 95 1005.9
20260509133512 55 241 16.0 20.0 0.00 0.10 0.00 95 1006.0
20260509133017 55 241 16.0 20.0 0.00 0.10 0.00 96 1005.9
20260509132509 54 234 15.0 19.0 0.00 0.10 0.00 96 1006.0
20260509132007 54 245 17.0 19.0 0.00 0.10 0.00 97 1005.9
20260509131504 54 226 14.0 19.0 0.00 0.10 0.00 97 1006.0
20260509131002 54 250 14.0 19.0 0.00 0.10 0.00 98 1005.9
20260509130504 53 238 15.0 18.0 0.00 0.10 0.00 98 1005.9
20260509130006 53 248 14.0 18.0 0.00 0.10 0.00 98 1006.0
20260509125504 52 247 14.0 19.0 0.00 0.10 0.00 98 1006.0
20260509125007 52 238 15.0 19.0 0.00 0.10 0.00 98 1005.8
20260509124512 52 236 15.0 19.0 0.00 0.10 0.00 98 1005.8
20260509124004 52 240 15.0 19.0 0.00 0.10 0.00 98 1005.8
20260509123504 52 229 15.0 19.0 0.00 0.10 0.00 98 1005.8
20260509123016 52 230 15.0 18.0 0.00 0.10 0.00 98 1005.8
20260509122505 52 248 14.0 17.0 0.00 0.10 0.00 98 1005.7
20260509122004 52 232 14.0 16.0 0.00 0.10 0.00 98 1005.7
20260509121518 52 241 13.0 16.0 0.00 0.10 0.00 98 1005.7
20260509121011 52 222 12.0 15.0 0.00 0.10 0.00 98 1005.7
20260509120507 52 235 12.0 15.0 0.00 0.10 0.00 98 1005.7
20260509120004 52 236 12.0 15.0 0.00 0.10 0.00 98 1005.7
20260509115504 52 239 12.0 15.0 0.00 0.10 0.00 98 1005.7
20260509115004 52 236 11.0 15.0 0.00 0.10 0.00 98 1005.7
20260509114508 52 225 12.0 14.0 0.00 0.10 0.00 98 1005.7
20260509114004 52 226 11.0 17.0 0.00 0.10 0.00 98 1005.7
20260509113504 53 228 12.0 17.0 0.00 0.10 0.00 98 1005.6
20260509113012 53 248 12.0 16.0 0.00 0.10 0.00 98 1005.6